sat.trackr.live / text

‹ back to catalog

NOVASAR 1

NORAD 43619 · 2018-071B

PAYLOAD ACTIVE UNKNOWN

§ Identity

Operator
Country
UK
Launch date
2018-09-16
Launch site
SRILR
Launch vehicle
Mass (kg)
RCS (m²)

External: N2YO · Heavens-Above · Gunter

§ Orbital elements

Epoch: 2026-09-20T05:10:58.298592Z

Period
96.24 min
Inclination
97.4908°
Eccentricity
0.0002011
Mean motion
14.96326054 rev/d
Perigee alt
576.9 km
Apogee alt
579.7 km
Semi-major
6,956.4 km
B*
-4.3825e-5
RAAN
131.5668°
Arg perigee
81.3286°
Mean anomaly
278.8164°
Rev number
43,714

§ Raw data

NOVASAR 11 43619U 18071B   26263.21595253 -.00000550  00000+0 -43825-4 0  99982 43619  97.4908 131.5668 0002011  81.3286 278.8164 14.96326054437149

JSON: /api/v1/satellites/43619 · /tle

For live sub-satellite position, see the globe view (requires WebGL).

§ Visibility from observer

Set your observer location to see the next 7 days of passes ≥ 10°. The values pass through the URL so the page stays shareable.

No JS? Fill the form by hand. The geolocation button needs JavaScript.

§ Radio — SatNOGS DB

ModeDescriptionDownlinkUplink
FM S-band telemetry 2.227 GHz

1 transmitter · refreshed weekly from db.satnogs.org